Погода в Ксар-эль-Кебире

Марокко     35°00′15″N   5°54′06″W
темп.,
°C
ветер,
м/с
пор.,
м/с
влажн.,
%
обл.,
%
осадки,
мм/ч
давл.,
гПа
погр.,
м
3 марта, ср
ср301:00+11вюв23880 0.0 102425
04:00+10в12830 0.0 102322
07:00+9в12840 0.0 102322
10:00+14вюв22750 0.0 1024151
13:00+20всв23580 0.0 1024796
16:00+22с13510 0.0 10211695
19:00+17ссв34791 0.0 102186
22:00+13вюв23790 0.0 102226
4 марта, чт
чт401:00+11в23820 0.0 102029
04:00+10в228738 0.0 101923
07:00+10вюв228569 0.0 101822
10:00+14юв1274100 0.0 1019135
13:00+18юв3461100 0.0 1018721
16:00+19ююз3367100 0.0 10161019
19:00+15зсз2387100 1.6 101597
22:00+13ююв1189100 0.2 101723
5 марта, пт
пт501:00+13ююз2394100 0.3 1016116
04:00+12ю2398100 5.8 1015155
07:00+11ююв369793 6.8 1014210
10:00+12ююв579367 0.3 1014361
13:00+16ююз457757 1.9 1014830
16:00+16зюз457236 2.2 10121074
19:00+12св129160 3.4 101351
22:00+12вюв3689100 0.4 1015131
6 марта, сб
сб601:00+10вюв349392 0.6 101579
04:00+10юв228979 0.1 101526
07:00+9вюв229078 0.2 101524
10:00+13в128125 0.0 1017182
13:00+17сз017129 1.3 1019665
16:00+17ссз347687 1.8 1018733
19:00+14сз238753 2.6 101970
22:00+11вюв019112 0.0 102122
7 марта, вс
вс701:00+10юв12916 0.0 102123
04:00+10юв12911 0.0 102122
07:00+9юв22921 0.0 102123
10:00+13ююв23861 0.0 1022276
13:00+17ю337813 0.1 1022700
16:00+18з337245 0.3 1020852
19:00+14зсз238931 0.6 102061
22:00+12зюз119532 0.0 102123